Weather History for Woodward, OK

Change the Weather History Date:

Monday, September 9, 2013

  Actual Average (KGAG) Record (KGAG)
Temperature  
Mean Temperature 84 °F -  
Max Temperature 95 °F 87 °F 101 °F (1970)
Min Temperature 73 °F 60 °F 44 °F (2004)
Cooling Degree Days 19    
Growing Degree Days 34 (Base 50)    
Moisture  
Dew Point 55 °F    
Average Humidity 39    
Maximum Humidity 61    
Minimum Humidity 24    
Precipitation  
Precipitation 0.00 in - - ()
Sea Level Pressure  
Sea Level Pressure 29.97 in    
Wind  
Wind Speed 14 mph (South)    
Max Wind Speed 22 mph    
Max Gust Speed 30 mph    
Visibility 10 miles    
Events      
Averages and records for this station are not official NWS values.
T = Trace of Precipitation, MM = Missing Value Source: NWS Daily Summary

Daily Weather History Graph

Daily Weather History Graph

Search for Another Location

Airport:

Trip Planner

Search our weather history database for the weather conditions in past years. The results will help you decide how hot, cold, wet, or windy it might be!

Date:

Astronomy

Sep. 09, 2013 Rise Set
Actual Time 7:15 AM CDT 7:53 PM CDT
Civil Twilight 6:49 AM CDT 8:19 PM CDT
Nautical Twilight 6:19 AM CDT 8:50 PM CDT
Astronomical Twilight 5:47 AM CDT 9:21 PM CDT
Moon 11:30 AM CDT (9/9) 10:20 PM CDT (9/9)
Length of Visible Light 13h 30m
Length of Day
12h 38m
Waxing Crescent, 19% of the Moon is Illuminated
Sep 9
Waxing Crescent
Sep 12
First Quarter
Sep 19
Full
Sep 26
Last Quarter
Oct 4
New

Hourly Weather History & Observations

Time (CDT) Temp. Heat Index Dew Point Humidity Pressure Visibility Wind Dir Wind Speed Gust Speed Precip Events Conditions
12:15 AM 80.6 °F - 51.8 °F 37% 29.98 in 10.0 mi SSE 13.8 mph 17.3 mph N/A   Clear
12:35 AM 80.6 °F - 51.8 °F 37% 29.98 in 10.0 mi South 16.1 mph - N/A   Clear
12:55 AM 80.6 °F 80.3 °F 53.6 °F 39% 29.98 in 10.0 mi South 11.5 mph - N/A   Clear
1:15 AM 80.6 °F 80.3 °F 53.6 °F 39% 29.98 in 10.0 mi South 13.8 mph 20.7 mph N/A   Clear
1:35 AM 80.6 °F 80.3 °F 53.6 °F 39% 29.97 in 10.0 mi South 12.7 mph 17.3 mph N/A   Clear
1:55 AM 80.6 °F 80.3 °F 53.6 °F 39% 29.97 in 10.0 mi South 15.0 mph 20.7 mph N/A   Clear
2:15 AM 78.8 °F - 55.4 °F 44% 29.97 in 10.0 mi South 12.7 mph 18.4 mph N/A   Clear
2:35 AM 78.8 °F - 55.4 °F 44% 29.97 in 10.0 mi South 13.8 mph - N/A   Clear
2:55 AM 78.8 °F - 55.4 °F 44% 29.98 in 10.0 mi South 13.8 mph - N/A   Clear
3:15 AM 78.8 °F - 55.4 °F 44% 29.97 in 10.0 mi South 13.8 mph 17.3 mph N/A   Clear
3:35 AM 78.8 °F - 55.4 °F 44% 29.97 in 10.0 mi South 11.5 mph 18.4 mph N/A   Clear
3:55 AM 77.0 °F - 55.4 °F 47% 29.97 in 10.0 mi South 12.7 mph 18.4 mph N/A   Clear
4:15 AM 77.0 °F - 55.4 °F 47% 29.97 in 10.0 mi South 13.8 mph 18.4 mph N/A   Clear
4:35 AM 77.0 °F - 57.2 °F 50% 29.97 in 10.0 mi South 13.8 mph 19.6 mph N/A   Clear
4:55 AM 77.0 °F - 57.2 °F 50% 29.97 in 10.0 mi South 15.0 mph - N/A   Clear
5:15 AM 75.2 °F - 57.2 °F 53% 29.97 in 10.0 mi South 12.7 mph - N/A   Clear
5:35 AM 75.2 °F - 57.2 °F 53% 29.97 in 10.0 mi South 12.7 mph - N/A   Clear
5:55 AM 73.4 °F - 57.2 °F 57% 29.97 in 10.0 mi South 10.4 mph - N/A   Clear
6:15 AM 73.4 °F - 57.2 °F 57% 29.97 in 10.0 mi South 11.5 mph - N/A   Clear
6:35 AM 73.4 °F - 59.0 °F 61% 29.98 in 10.0 mi South 11.5 mph - N/A   Clear
6:55 AM 73.4 °F - 59.0 °F 61% 29.98 in 10.0 mi South 11.5 mph - N/A   Clear
7:15 AM 73.4 °F - 59.0 °F 61% 29.99 in 10.0 mi South 12.7 mph - N/A   Clear
7:35 AM 73.4 °F - 59.0 °F 61% 29.99 in 10.0 mi South 11.5 mph - N/A   Clear
7:55 AM 73.4 °F - 59.0 °F 61% 30.00 in 10.0 mi South 11.5 mph - N/A   Clear
8:15 AM 75.2 °F - 59.0 °F 57% 30.00 in 10.0 mi South 12.7 mph - N/A   Clear
8:35 AM 77.0 °F - 59.0 °F 54% 30.00 in 10.0 mi South 11.5 mph - N/A   Clear
8:55 AM 78.8 °F - 59.0 °F 51% 30.01 in 10.0 mi South 13.8 mph 17.3 mph N/A   Clear
9:15 AM 80.6 °F 81.1 °F 59.0 °F 48% 30.01 in 10.0 mi South 15.0 mph - N/A   Clear
9:35 AM 80.6 °F 81.1 °F 59.0 °F 48% 30.01 in 10.0 mi South 12.7 mph 18.4 mph N/A   Clear
9:55 AM 82.4 °F 82.5 °F 59.0 °F 45% 30.01 in 10.0 mi South 12.7 mph - N/A   Clear
10:15 AM 86.0 °F 85.4 °F 59.0 °F 40% 30.01 in 10.0 mi South 18.4 mph 23.0 mph N/A   Clear
10:35 AM 86.0 °F 85.4 °F 59.0 °F 40% 30.01 in 10.0 mi SSW 13.8 mph 24.2 mph N/A   Clear
10:55 AM 86.0 °F 85.4 °F 59.0 °F 40% 30.02 in 10.0 mi SSW 17.3 mph - N/A   Clear
11:15 AM 87.8 °F 87.1 °F 59.0 °F 38% 30.01 in 10.0 mi South 13.8 mph - N/A   Clear
11:35 AM 87.8 °F 87.1 °F 59.0 °F 38% 30.01 in 10.0 mi SSW 17.3 mph 24.2 mph N/A   Clear
11:55 AM 87.8 °F 86.5 °F 57.2 °F 35% 30.01 in 10.0 mi South 15.0 mph 27.6 mph N/A   Clear
12:15 PM 89.6 °F 88.1 °F 57.2 °F 33% 30.01 in 10.0 mi South 18.4 mph 25.3 mph N/A   Scattered Clouds
12:35 PM 89.6 °F 88.1 °F 57.2 °F 33% 30.00 in 10.0 mi South 19.6 mph 25.3 mph N/A   Clear
12:55 PM 89.6 °F 87.7 °F 55.4 °F 31% 30.00 in 10.0 mi South 17.3 mph 26.5 mph N/A   Scattered Clouds
1:15 PM 89.6 °F 87.7 °F 55.4 °F 31% 30.00 in 10.0 mi South 18.4 mph 24.2 mph N/A   Scattered Clouds
1:35 PM 91.4 °F 89.4 °F 55.4 °F 29% 29.99 in 10.0 mi South 19.6 mph 26.5 mph N/A   Scattered Clouds
1:55 PM 91.4 °F 89.4 °F 55.4 °F 29% 29.99 in 10.0 mi South 19.6 mph 25.3 mph N/A   Scattered Clouds
2:15 PM 91.4 °F 89.4 °F 55.4 °F 29% 29.98 in 10.0 mi South 21.9 mph 27.6 mph N/A   Scattered Clouds
2:35 PM 91.4 °F 89.4 °F 55.4 °F 29% 29.97 in 10.0 mi South 18.4 mph 27.6 mph N/A   Scattered Clouds
2:55 PM 95.0 °F 92.7 °F 53.6 °F 25% 29.96 in 10.0 mi SSE 17.3 mph 26.5 mph N/A   Scattered Clouds
3:15 PM 91.4 °F 89.1 °F 53.6 °F 28% 29.96 in 10.0 mi South 20.7 mph 27.6 mph N/A   Scattered Clouds
3:35 PM 93.2 °F 90.8 °F 53.6 °F 26% 29.95 in 10.0 mi South 20.7 mph 24.2 mph N/A   Scattered Clouds
3:55 PM 91.4 °F - 51.8 °F 26% 29.94 in 10.0 mi South 21.9 mph 29.9 mph N/A   Mostly Cloudy
4:15 PM 91.4 °F - 51.8 °F 26% 29.94 in 10.0 mi South 19.6 mph 29.9 mph N/A   Scattered Clouds
4:35 PM 91.4 °F - 51.8 °F 26% 29.93 in 10.0 mi South 16.1 mph 26.5 mph N/A   Scattered Clouds
4:55 PM 93.2 °F - 51.8 °F 24% 29.93 in 10.0 mi SSE 21.9 mph 28.8 mph N/A   Scattered Clouds
5:15 PM 91.4 °F - 51.8 °F 26% 29.93 in 10.0 mi SSE 17.3 mph 25.3 mph N/A   Scattered Clouds
5:35 PM 91.4 °F - 51.8 °F 26% 29.93 in 10.0 mi South 20.7 mph 28.8 mph N/A   Scattered Clouds
5:55 PM 91.4 °F - 51.8 °F 26% 29.92 in 10.0 mi South 16.1 mph 25.3 mph N/A   Scattered Clouds
6:15 PM 91.4 °F - 51.8 °F 26% 29.92 in 10.0 mi South 16.1 mph 29.9 mph N/A   Scattered Clouds
6:35 PM 91.4 °F - 51.8 °F 26% 29.92 in 10.0 mi South 19.6 mph 26.5 mph N/A   Clear
6:55 PM 89.6 °F - 51.8 °F 27% 29.92 in 10.0 mi SSE 18.4 mph 24.2 mph N/A   Clear
7:15 PM 89.6 °F - 51.8 °F 27% 29.92 in 10.0 mi SSE 15.0 mph - N/A   Clear
7:35 PM 87.8 °F - 51.8 °F 29% 29.92 in 10.0 mi South 13.8 mph 21.9 mph N/A   Clear
7:55 PM 86.0 °F - 51.8 °F 31% 29.93 in 10.0 mi SSE 10.4 mph - N/A   Clear
8:15 PM 86.0 °F - 51.8 °F 31% 29.93 in 10.0 mi SSE 10.4 mph - N/A   Clear
8:35 PM 84.2 °F 82.8 °F 53.6 °F 35% 29.94 in 10.0 mi SSE 10.4 mph - N/A   Clear
8:55 PM 82.4 °F 81.4 °F 53.6 °F 37% 29.95 in 10.0 mi SSE 9.2 mph - N/A   Clear
9:15 PM 82.4 °F 81.4 °F 53.6 °F 37% 29.95 in 10.0 mi SSE 11.5 mph - N/A   Clear
9:35 PM 82.4 °F 81.4 °F 53.6 °F 37% 29.96 in 10.0 mi SSE 13.8 mph - N/A   Clear
9:55 PM 82.4 °F 81.4 °F 53.6 °F 37% 29.97 in 10.0 mi SSE 12.7 mph - N/A   Clear
10:15 PM 82.4 °F 81.4 °F 53.6 °F 37% 29.97 in 10.0 mi SSE 12.7 mph - N/A   Clear
10:35 PM 80.6 °F 80.3 °F 53.6 °F 39% 29.99 in 10.0 mi SSE 12.7 mph - N/A   Clear
10:55 PM 80.6 °F 80.3 °F 53.6 °F 39% 29.99 in 10.0 mi SSE 12.7 mph - N/A   Clear
11:15 PM 80.6 °F 80.3 °F 53.6 °F 39% 30.00 in 10.0 mi SSE 10.4 mph - N/A   Clear
11:35 PM 78.8 °F - 53.6 °F 42% 29.99 in 10.0 mi SSE 11.5 mph - N/A   Clear
11:55 PM 80.6 °F 80.3 °F 53.6 °F 39% 30.00 in 10.0 mi South 12.7 mph - N/A   Clear